Location: Christianberg
(48.9086°N, 14.0209°E)
Time: 21:10:58
(UTC+00:00)

Cosmos 1553 Rocket - Pass Details

Date: 20 June 2021
Orbit: 940 x 1009 km, 82.9° (Epoch: 02 August)

Event Time Altitude Azimuth Distance (km) Brightness Sun altitude
Rises 02:01:22 0° 346° (NNW) 3,722 7.6 -7.7°
Reaches altitude 10° 02:04:00 10° 341° (NNW) 2,759 6.8 -7.4°
Maximum altitude 02:10:01 48° 270° (W) 1,256 4.4 -6.8°
Drops below altitude 10° 02:15:54 10° 198° (SSW) 2,696 5.8 -6.1°
Enters shadow 02:17:54 - 193° (SSW) 3,424 6.3 -5.9°
